DW9677 Weather Reports


Display with metric or nautical units.
time (UTC)temp
F
wind
direction
speed
MPH
gust
MPH
rain 1hr
in
rain 24hr
in
rain mn
in
humidity
%
barometer
mb
20260504050013 49 43 0.0 0.0 0.00 0.00 0.00 76 1014.4
20260504044519 49 43 0.0 0.0 0.00 0.00 0.00 77 1014.2
20260504043011 49 42 0.0 0.0 0.00 0.00 0.00 78 1014.1
20260504041512 49 42 0.0 0.0 0.00 0.00 0.00 78 1014.3
20260504040010 50 42 0.0 0.0 0.00 0.00 0.00 78 1014.3
20260504034506 49 42 0.0 0.0 0.00 0.00 0.00 78 1014.4
20260504033011 49 42 0.0 0.0 0.00 0.00 0.00 78 1014.5
20260504031504 49 42 0.0 0.0 0.00 0.00 0.00 79 1014.4
20260504030001 50 43 0.0 0.0 0.00 0.00 0.00 79 1014.5
20260504024603 51 43 0.0 0.0 0.00 0.00 0.00 78 1014.5
20260504023055 52 42 0.0 0.0 0.00 0.00 0.00 77 1014.6
20260504021553 53 43 0.0 0.0 0.00 0.00 0.00 75 1014.7
20260504020052 54 43 0.0 0.0 0.00 0.00 0.00 74 1014.7
20260504014553 55 43 0.0 0.0 0.00 0.00 0.00 73 1014.7
20260504013103 55 43 0.0 0.0 0.00 0.00 0.00 72 1014.8
20260504011550 55 43 0.0 0.0 0.00 0.00 0.00 71 1014.9
20260504010057 56 43 0.0 0.0 0.00 0.00 0.00 70 1015.0
20260504004557 56 42 0.0 1.0 0.00 0.00 0.00 71 1014.9
20260504003047 56 43 0.0 0.0 0.00 0.00 0.00 70 1014.8
20260504001546 56 43 0.0 0.0 0.00 0.00 0.00 70 1014.8
20260504000044 57 42 0.0 0.0 0.00 0.00 0.00 68 1014.8
20260503234542 57 42 0.0 0.0 0.00 0.00 0.00 69 1014.7
20260503233044 58 43 0.0 1.0 0.00 0.00 0.00 69 1014.6
20260503231533 58 43 0.0 1.0 0.00 0.00 0.00 68 1014.5
20260503230035 58 42 0.0 0.0 0.00 0.00 0.00 69 1014.2
20260503224527 58 43 0.0 1.0 0.00 0.00 0.00 68 1014.0
20260503223024 57 42 0.0 1.0 0.00 0.00 0.00 70 1013.9
20260503221523 55 43 0.0 6.0 0.00 0.00 0.00 74 1013.6
20260503220015 53 43 0.0 0.0 0.00 0.00 0.00 77 1013.3
20260503214515 52 43 0.0 0.0 0.00 0.00 0.00 77 1013.3
20260503213007 53 43 0.0 0.0 0.00 0.00 0.00 77 1013.1
20260503211503 53 43 0.0 0.0 0.00 0.00 0.00 76 1012.9
20260503210058 53 43 0.0 0.0 0.00 0.00 0.00 75 1012.7
20260503204533 54 42 0.0 0.0 0.00 0.00 0.00 75 1012.7
20260503203028 54 43 0.0 0.0 0.00 0.00 0.00 73 1012.5
20260503201524 54 42 0.0 0.0 0.00 0.00 0.00 72 1012.5
20260503200020 55 43 0.0 0.0 0.00 0.00 0.00 70 1012.3
20260503194514 56 43 0.0 0.0 0.00 0.00 0.00 67 1012.3
20260503193013 58 43 0.0 0.0 0.00 0.00 0.00 65 1012.2
20260503191522 59 44 0.0 0.0 0.00 0.00 0.00 63 1012.0
20260503190005 61 43 0.0 0.0 0.00 0.00 0.00 59 1012.0
20260503184605 62 43 0.0 0.0 0.00 0.00 0.00 56 1012.0
20260503183055 64 44 0.0 0.0 0.00 0.00 0.00 53 1011.9
20260503181549 64 44 0.0 0.0 0.00 0.00 0.00 51 1011.6
20260503180054 65 44 0.0 0.0 0.00 0.00 0.00 49 1011.5
20260503174545 66 44 0.0 0.0 0.00 0.00 0.00 49 1011.4
20260503173042 67 44 0.0 0.0 0.00 0.00 0.00 48 1011.2
20260503171531 69 44 0.0 0.0 0.00 0.00 0.00 47 1011.2
20260503081555 74 44 0.0 0.0 0.00 0.00 0.00 40 1015.3